| time (UTC) | temp C | wind direction | speed KPH | gust KPH | rain 1hr cm | rain 24hr cm | rain mn cm | humidity % | barometer mb |
| 20260508052211 | 16 | 261 | 0.0 | 3.2 | 0.00 | 0.00 | 0.00 | 52 | 1024.2 |
| 20260508051709 | 16 | 261 | 0.0 | 3.2 | 0.00 | 0.00 | 0.00 | 50 | 1024.1 |
| 20260508051434 | 17 | 264 | 0.0 | 3.2 | 0.00 | 0.00 | 0.00 | 47 | 1024.0 |
| 20260508050927 | 16 | 255 | 0.0 | 0.0 | 0.00 | 0.00 | 0.00 | 48 | 1024.0 |
| 20260508050214 | 16 | 261 | 0.0 | 0.0 | 0.00 | 0.00 | 0.00 | 49 | 1024.1 |
| 20260508045709 | 15 | 261 | 0.0 | 0.0 | 0.00 | 0.00 | 0.00 | 52 | 1024.1 |
| 20260508045208 | 15 | 248 | 0.0 | 0.0 | 0.00 | 0.00 | 0.00 | 54 | 1024.1 |
| 20260508044932 | 15 | 248 | 0.0 | 0.0 | 0.00 | 0.00 | 0.00 | 55 | 1024.1 |
| 20260508044209 | 15 | 247 | 0.0 | 0.0 | 0.00 | 0.00 | 0.00 | 56 | 1024.0 |
| 20260508044154 | 15 | 247 | 0.0 | 0.0 | 0.00 | 0.00 | 0.00 | 55 | 1024.0 |
| 20260508043208 | 15 | 247 | 0.0 | 0.0 | 0.00 | 0.00 | 0.00 | 55 | 1023.9 |
| 20260508042709 | 16 | 279 | 0.0 | 0.0 | 0.00 | 0.00 | 0.00 | 54 | 1023.9 |
| 20260508042208 | 16 | 245 | 0.0 | 0.0 | 0.00 | 0.00 | 0.00 | 54 | 1023.8 |
| 20260508041708 | 15 | 204 | 0.0 | 0.0 | 0.00 | 0.00 | 0.00 | 55 | 1023.7 |
| 20260508041657 | 15 | 224 | 0.0 | 0.0 | 0.00 | 0.00 | 0.00 | 57 | 1023.7 |
| 20260508040707 | 16 | 224 | 0.0 | 0.0 | 0.00 | 0.00 | 0.00 | 56 | 1023.7 |
| 20260508040209 | 16 | 224 | 0.0 | 0.0 | 0.00 | 0.00 | 0.00 | 53 | 1023.7 |
| 20260508035707 | 17 | 224 | 0.0 | 0.0 | 0.00 | 0.00 | 0.00 | 52 | 1023.6 |
| 20260508035210 | 17 | 285 | 0.0 | 0.0 | 0.00 | 0.00 | 0.00 | 51 | 1023.6 |
| 20260508034939 | 17 | 326 | 0.0 | 0.0 | 0.00 | 0.00 | 0.00 | 51 | 1023.5 |
| 20260508034212 | 17 | 288 | 0.0 | 0.0 | 0.00 | 0.00 | 0.00 | 50 | 1023.5 |
| 20260508033708 | 18 | 251 | 0.0 | 0.0 | 0.00 | 0.00 | 0.00 | 49 | 1023.4 |
| 20260508033431 | 18 | 213 | 0.0 | 0.0 | 0.00 | 0.00 | 0.00 | 48 | 1023.5 |
| 20260508032708 | 18 | 207 | 0.0 | 0.0 | 0.00 | 0.00 | 0.00 | 46 | 1023.4 |
| 20260508032207 | 19 | 245 | 0.0 | 0.0 | 0.00 | 0.00 | 0.00 | 46 | 1023.3 |
| 20260508031707 | 19 | 190 | 0.0 | 0.0 | 0.00 | 0.00 | 0.00 | 45 | 1023.3 |
| 20260508031207 | 20 | 190 | 0.0 | 0.0 | 0.00 | 0.00 | 0.00 | 43 | 1023.2 |
| 20260508030708 | 20 | 102 | 0.0 | 0.0 | 0.00 | 0.00 | 0.00 | 42 | 1023.2 |
| 20260508030207 | 20 | 102 | 0.0 | 0.0 | 0.00 | 0.00 | 0.00 | 44 | 1023.2 |
| 20260508025706 | 21 | 102 | 0.0 | 0.0 | 0.00 | 0.00 | 0.00 | 45 | 1023.2 |
| 20260508025207 | 21 | 102 | 0.0 | 0.0 | 0.00 | 0.00 | 0.00 | 41 | 1023.1 |
| 20260508024706 | 22 | 102 | 0.0 | 0.0 | 0.00 | 0.00 | 0.00 | 37 | 1023.0 |
| 20260508024207 | 22 | 110 | 0.0 | 0.0 | 0.00 | 0.00 | 0.00 | 37 | 1023.0 |
| 20260508023705 | 22 | 110 | 0.0 | 6.4 | 0.00 | 0.00 | 0.00 | 36 | 1022.9 |
| 20260508023207 | 23 | 130 | 1.6 | 6.4 | 0.00 | 0.00 | 0.00 | 35 | 1022.9 |
| 20260508022706 | 23 | 124 | 0.0 | 6.4 | 0.00 | 0.00 | 0.00 | 34 | 1022.7 |
| 20260508022207 | 23 | 130 | 3.2 | 6.4 | 0.00 | 0.00 | 0.00 | 34 | 1022.9 |
| 20260508021930 | 23 | 135 | 3.2 | 8.0 | 0.00 | 0.00 | 0.00 | 34 | 1022.9 |
| 20260508021205 | 23 | 111 | 3.2 | 8.0 | 0.00 | 0.00 | 0.00 | 34 | 1022.9 |
| 20260508020705 | 23 | 90 | 3.2 | 6.4 | 0.00 | 0.00 | 0.00 | 34 | 1022.7 |
| 20260508020205 | 23 | 113 | 0.0 | 4.8 | 0.00 | 0.00 | 0.00 | 32 | 1022.7 |
| 20260508015706 | 23 | 138 | 0.0 | 3.2 | 0.00 | 0.00 | 0.00 | 32 | 1022.9 |
| 20260508015205 | 24 | 138 | 0.0 | 3.2 | 0.00 | 0.00 | 0.00 | 29 | 1022.7 |
| 20260508014927 | 24 | 134 | 0.0 | 3.2 | 0.00 | 0.00 | 0.00 | 30 | 1022.7 |
| 20260508014204 | 24 | 125 | 1.6 | 6.4 | 0.00 | 0.00 | 0.00 | 28 | 1022.7 |
| 20260508013706 | 25 | 130 | 3.2 | 8.0 | 0.00 | 0.00 | 0.00 | 29 | 1022.7 |
| 20260508013205 | 25 | 151 | 3.2 | 8.0 | 0.00 | 0.00 | 0.00 | 28 | 1022.7 |
| 20260508012704 | 25 | 99 | 4.8 | 6.4 | 0.00 | 0.00 | 0.00 | 28 | 1022.7 |
| 20260508012205 | 25 | 94 | 3.2 | 8.0 | 0.00 | 0.00 | 0.00 | 28 | 1022.9 |
| 20260508011704 | 25 | 134 | 1.6 | 9.7 | 0.00 | 0.00 | 0.00 | 27 | 1022.7 |
| 20260508011646 | 25 | 114 | 4.8 | 9.7 | 0.00 | 0.00 | 0.00 | 26 | 1022.7 |
| 20260508010704 | 25 | 125 | 3.2 | 11.3 | 0.00 | 0.00 | 0.00 | 25 | 1023.0 |
| 20260508010206 | 26 | 151 | 3.2 | 14.5 | 0.00 | 0.00 | 0.00 | 25 | 1023.0 |
| 20260508005704 | 26 | 135 | 8.0 | 14.5 | 0.00 | 0.00 | 0.00 | 24 | 1023.0 |
| 20260508005205 | 26 | 100 | 4.8 | 11.3 | 0.00 | 0.00 | 0.00 | 25 | 1023.1 |
| 20260508004925 | 26 | 102 | 8.0 | 16.1 | 0.00 | 0.00 | 0.00 | 25 | 1023.0 |
| 20260508004203 | 26 | 96 | 8.0 | 16.1 | 0.00 | 0.00 | 0.00 | 24 | 1023.0 |
| 20260508003703 | 26 | 117 | 6.4 | 16.1 | 0.00 | 0.00 | 0.00 | 24 | 1023.1 |
| 20260508003203 | 26 | 138 | 8.0 | 14.5 | 0.00 | 0.00 | 0.00 | 24 | 1023.1 |
| 20260508002704 | 26 | 131 | 6.4 | 14.5 | 0.00 | 0.00 | 0.00 | 23 | 1023.2 |
| 20260508002203 | 26 | 116 | 6.4 | 16.1 | 0.00 | 0.00 | 0.00 | 24 | 1023.2 |
| 20260508001704 | 26 | 147 | 8.0 | 16.1 | 0.00 | 0.00 | 0.00 | 22 | 1023.3 |
| 20260508001428 | 26 | 138 | 4.8 | 11.3 | 0.00 | 0.00 | 0.00 | 24 | 1023.1 |
| 20260508001151 | 26 | 130 | 3.2 | 14.5 | 0.00 | 0.00 | 0.00 | 22 | 1023.2 |
| 20260508000204 | 26 | 148 | 6.4 | 14.5 | 0.00 | 0.00 | 0.00 | 23 | 1023.2 |
| 20260507235702 | 26 | 116 | 9.7 | 17.7 | 0.00 | 0.00 | 0.00 | 23 | 1023.2 |
| 20260507235202 | 26 | 133 | 8.0 | 17.7 | 0.00 | 0.00 | 0.00 | 23 | 1023.3 |
| 20260507234702 | 27 | 152 | 8.0 | 17.7 | 0.00 | 0.00 | 0.00 | 23 | 1023.3 |
| 20260507234203 | 27 | 137 | 4.8 | 11.3 | 0.00 | 0.00 | 0.00 | 22 | 1023.3 |
| 20260507233701 | 26 | 162 | 6.4 | 9.7 | 0.00 | 0.00 | 0.00 | 23 | 1023.3 |
| 20260507233203 | 27 | 138 | 4.8 | 9.7 | 0.00 | 0.00 | 0.00 | 22 | 1023.4 |
| 20260507232702 | 26 | 125 | 6.4 | 9.7 | 0.00 | 0.00 | 0.00 | 23 | 1023.5 |
| 20260507232428 | 27 | 209 | 4.8 | 11.3 | 0.00 | 0.00 | 0.00 | 23 | 1023.5 |
| 20260507231701 | 26 | 92 | 6.4 | 11.3 | 0.00 | 0.00 | 0.00 | 23 | 1023.5 |
| 20260507231201 | 26 | 134 | 1.6 | 17.7 | 0.00 | 0.00 | 0.00 | 24 | 1023.5 |
| 20260507230702 | 26 | 97 | 9.7 | 17.7 | 0.00 | 0.00 | 0.00 | 23 | 1023.5 |
| 20260507230201 | 26 | 133 | 4.8 | 9.7 | 0.00 | 0.00 | 0.00 | 23 | 1023.5 |
| 20260507225702 | 26 | 213 | 1.6 | 16.1 | 0.00 | 0.00 | 0.00 | 23 | 1023.7 |
| 20260507225201 | 26 | 100 | 8.0 | 16.1 | 0.00 | 0.00 | 0.00 | 24 | 1023.8 |
| 20260507224702 | 26 | 148 | 6.4 | 16.1 | 0.00 | 0.00 | 0.00 | 23 | 1023.8 |
| 20260507224200 | 26 | 82 | 9.7 | 16.1 | 0.00 | 0.00 | 0.00 | 23 | 1023.9 |
| 20260507223702 | 26 | 117 | 6.4 | 17.7 | 0.00 | 0.00 | 0.00 | 24 | 1024.0 |
| 20260507223201 | 26 | 155 | 9.7 | 17.7 | 0.00 | 0.00 | 0.00 | 24 | 1024.0 |
| 20260507222920 | 26 | 103 | 6.4 | 14.5 | 0.00 | 0.00 | 0.00 | 24 | 1024.1 |
| 20260507222800 | 26 | 103 | 6.4 | 14.5 | 0.00 | 0.00 | 0.00 | 23 | 1024.0 |
| 20260507221659 | 26 | 51 | 4.8 | 14.5 | 0.00 | 0.00 | 0.00 | 23 | 1024.2 |
| 20260507221201 | 26 | 93 | 4.8 | 17.7 | 0.00 | 0.00 | 0.00 | 24 | 1024.4 |
| 20260507220700 | 26 | 137 | 11.3 | 17.7 | 0.00 | 0.00 | 0.00 | 23 | 1024.4 |
| 20260507220201 | 26 | 117 | 6.4 | 19.3 | 0.00 | 0.00 | 0.00 | 25 | 1024.5 |
| 20260507215659 | 26 | 117 | 12.9 | 19.3 | 0.00 | 0.00 | 0.00 | 23 | 1024.5 |
| 20260507215423 | 26 | 86 | 6.4 | 16.1 | 0.00 | 0.00 | 0.00 | 24 | 1024.5 |
| 20260507214700 | 26 | 103 | 3.2 | 16.1 | 0.00 | 0.00 | 0.00 | 24 | 1024.6 |
| 20260507214159 | 26 | 51 | 6.4 | 16.1 | 0.00 | 0.00 | 0.00 | 24 | 1024.8 |
| 20260507213659 | 26 | 114 | 8.0 | 16.1 | 0.00 | 0.00 | 0.00 | 23 | 1024.8 |
| 20260507213159 | 26 | 124 | 4.8 | 19.3 | 0.00 | 0.00 | 0.00 | 24 | 1024.8 |
| 20260507212700 | 25 | 134 | 9.7 | 19.3 | 0.00 | 0.00 | 0.00 | 23 | 1024.9 |
| 20260507212159 | 26 | 137 | 3.2 | 19.3 | 0.00 | 0.00 | 0.00 | 23 | 1024.9 |
| 20260507211700 | 26 | 73 | 8.0 | 19.3 | 0.00 | 0.00 | 0.00 | 22 | 1025.0 |
| 20260507211159 | 26 | 49 | 8.0 | 17.7 | 0.00 | 0.00 | 0.00 | 24 | 1024.9 |
| 20260507210700 | 26 | 171 | 4.8 | 16.1 | 0.00 | 0.00 | 0.00 | 23 | 1025.0 |
| 20260507210158 | 26 | 114 | 9.7 | 16.1 | 0.00 | 0.00 | 0.00 | 23 | 1025.1 |
| 20260507205658 | 25 | 71 | 3.2 | 17.7 | 0.00 | 0.00 | 0.00 | 24 | 1025.2 |
| 20260507205159 | 25 | 52 | 8.0 | 19.3 | 0.00 | 0.00 | 0.00 | 24 | 1025.2 |
| 20260507204924 | 25 | 121 | 11.3 | 19.3 | 0.00 | 0.00 | 0.00 | 23 | 1025.3 |
| 20260507204159 | 25 | 111 | 8.0 | 17.7 | 0.00 | 0.00 | 0.00 | 24 | 1025.3 |
| 20260507203658 | 25 | 125 | 8.0 | 19.3 | 0.00 | 0.00 | 0.00 | 24 | 1025.5 |
| 20260507203159 | 25 | 87 | 6.4 | 19.3 | 0.00 | 0.00 | 0.00 | 26 | 1025.5 |
| 20260507202658 | 25 | 92 | 8.0 | 17.7 | 0.00 | 0.00 | 0.00 | 24 | 1025.5 |
| 20260507202157 | 25 | 49 | 8.0 | 20.9 | 0.00 | 0.00 | 0.00 | 27 | 1025.5 |
| 20260507201701 | 25 | 106 | 6.4 | 22.5 | 0.00 | 0.00 | 0.00 | 25 | 1025.6 |
| 20260507201156 | 25 | 78 | 9.7 | 22.5 | 0.00 | 0.00 | 0.00 | 25 | 1025.7 |
| 20260507200658 | 25 | 55 | 8.0 | 20.9 | 0.00 | 0.00 | 0.00 | 24 | 1025.6 |
| 20260507200157 | 25 | 116 | 8.0 | 16.1 | 0.00 | 0.00 | 0.00 | 26 | 1025.7 |
| 20260507195922 | 25 | 106 | 6.4 | 17.7 | 0.00 | 0.00 | 0.00 | 28 | 1025.7 |
| 20260507195157 | 24 | 142 | 9.7 | 17.7 | 0.00 | 0.00 | 0.00 | 26 | 1025.7 |
| 20260507194658 | 24 | 99 | 9.7 | 17.7 | 0.00 | 0.00 | 0.00 | 26 | 1025.7 |
| 20260507194418 | 24 | 109 | 4.8 | 16.1 | 0.00 | 0.00 | 0.00 | 26 | 1025.6 |
| 20260507193657 | 24 | 90 | 9.7 | 16.1 | 0.00 | 0.00 | 0.00 | 27 | 1025.7 |
| 20260507193157 | 24 | 58 | 6.4 | 14.5 | 0.00 | 0.00 | 0.00 | 26 | 1025.8 |
| 20260507192656 | 24 | 86 | 4.8 | 16.1 | 0.00 | 0.00 | 0.00 | 27 | 1026.1 |
| 20260507192157 | 23 | 134 | 4.8 | 16.1 | 0.00 | 0.00 | 0.00 | 28 | 1026.0 |
| 20260507191656 | 23 | 131 | 4.8 | 11.3 | 0.00 | 0.00 | 0.00 | 27 | 1026.1 |
| 20260507191158 | 23 | 80 | 6.4 | 16.1 | 0.00 | 0.00 | 0.00 | 26 | 1026.2 |
| 20260507190655 | 23 | 116 | 4.8 | 16.1 | 0.00 | 0.00 | 0.00 | 26 | 1026.1 |
| 20260507190157 | 23 | 323 | 3.2 | 9.7 | 0.00 | 0.00 | 0.00 | 25 | 1026.2 |
| 20260507185919 | 23 | 142 | 4.8 | 9.7 | 0.00 | 0.00 | 0.00 | 26 | 1026.2 |
| 20260507184655 | 23 | 107 | 1.6 | 11.3 | 0.00 | 0.00 | 0.00 | 27 | 1026.2 |
| 20260507184411 | 23 | 144 | 4.8 | 11.3 | 0.00 | 0.00 | 0.00 | 26 | 1026.3 |
| 20260507183656 | 23 | 47 | 3.2 | 8.0 | 0.00 | 0.00 | 0.00 | 28 | 1026.4 |
| 20260507183155 | 23 | 93 | 3.2 | 8.0 | 0.00 | 0.00 | 0.00 | 26 | 1026.4 |
| 20260507182923 | 23 | 39 | 3.2 | 9.7 | 0.00 | 0.00 | 0.00 | 27 | 1026.4 |
| 20260507182155 | 23 | 158 | 1.6 | 9.7 | 0.00 | 0.00 | 0.00 | 27 | 1026.5 |
| 20260507181655 | 23 | 243 | 3.2 | 8.0 | 0.00 | 0.00 | 0.00 | 28 | 1026.5 |
| 20260507181634 | 22 | 314 | 1.6 | 8.0 | 0.00 | 0.00 | 0.00 | 31 | 1026.5 |
| 20260507180654 | 22 | 16 | 1.6 | 6.4 | 0.00 | 0.00 | 0.00 | 29 | 1026.5 |
| 20260507180155 | 22 | 271 | 1.6 | 9.7 | 0.00 | 0.00 | 0.00 | 30 | 1026.6 |
| 20260507175654 | 22 | 326 | 4.8 | 17.7 | 0.00 | 0.00 | 0.00 | 29 | 1026.6 |
| 20260507175156 | 22 | 266 | 3.2 | 17.7 | 0.00 | 0.00 | 0.00 | 32 | 1026.7 |
| 20260507174657 | 22 | 248 | 4.8 | 9.7 | 0.00 | 0.00 | 0.00 | 31 | 1026.6 |
| 20260507174647 | 22 | 286 | 3.2 | 9.7 | 0.00 | 0.00 | 0.00 | 31 | 1026.7 |
| 20260507173653 | 21 | 259 | 0.0 | 16.1 | 0.00 | 0.00 | 0.00 | 34 | 1026.7 |
| 20260507173415 | 21 | 333 | 4.8 | 16.1 | 0.00 | 0.00 | 0.00 | 34 | 1026.7 |
| 20260507172654 | 21 | 293 | 3.2 | 14.5 | 0.00 | 0.00 | 0.00 | 34 | 1026.7 |
| 20260507172412 | 21 | 302 | 6.4 | 14.5 | 0.00 | 0.00 | 0.00 | 34 | 1026.6 |
| 20260507171654 | 21 | 292 | 6.4 | 14.5 | 0.00 | 0.00 | 0.00 | 33 | 1026.7 |
| 20260507171153 | 21 | 286 | 3.2 | 9.7 | 0.00 | 0.00 | 0.00 | 35 | 1026.7 |
| 20260507170917 | 20 | 321 | 3.2 | 11.3 | 0.00 | 0.00 | 0.00 | 38 | 1026.8 |
| 20260507170153 | 20 | 272 | 4.8 | 19.3 | 0.00 | 0.00 | 0.00 | 37 | 1026.8 |
| 20260507165654 | 20 | 276 | 8.0 | 19.3 | 0.00 | 0.00 | 0.00 | 36 | 1026.9 |
| 20260507165410 | 19 | 264 | 6.4 | 20.9 | 0.00 | 0.00 | 0.00 | 37 | 1026.9 |
| 20260507164653 | 19 | 285 | 9.7 | 22.5 | 0.00 | 0.00 | 0.00 | 37 | 1027.0 |
| 20260507164150 | 19 | 302 | 4.8 | 22.5 | 0.00 | 0.00 | 0.00 | 38 | 1026.9 |
| 20260507163652 | 19 | 282 | 3.2 | 14.5 | 0.00 | 0.00 | 0.00 | 39 | 1026.9 |
| 20260507163153 | 19 | 274 | 6.4 | 17.7 | 0.00 | 0.00 | 0.00 | 39 | 1027.0 |
| 20260507162909 | 18 | 293 | 9.7 | 17.7 | 0.00 | 0.00 | 0.00 | 38 | 1027.0 |
| 20260507162422 | 18 | 266 | 8.0 | 20.9 | 0.00 | 0.00 | 0.00 | 39 | 1027.1 |
| 20260507161652 | 18 | 271 | 9.7 | 20.9 | 0.00 | 0.00 | 0.00 | 40 | 1027.2 |
| 20260507161152 | 18 | 214 | 6.4 | 19.3 | 0.00 | 0.00 | 0.00 | 40 | 1027.3 |
| 20260507160652 | 18 | 292 | 6.4 | 19.3 | 0.00 | 0.00 | 0.00 | 42 | 1027.5 |
| 20260507160152 | 18 | 272 | 3.2 | 17.7 | 0.00 | 0.00 | 0.00 | 42 | 1027.2 |
| 20260507155649 | 18 | 241 | 3.2 | 24.1 | 0.00 | 0.00 | 0.00 | 41 | 1027.2 |
| 20260507155420 | 17 | 288 | 4.8 | 24.1 | 0.00 | 0.00 | 0.00 | 42 | 1027.5 |
| 20260507154652 | 17 | 274 | 4.8 | 17.7 | 0.00 | 0.00 | 0.00 | 43 | 1027.5 |
| 20260507154416 | 17 | 289 | 4.8 | 16.1 | 0.00 | 0.00 | 0.00 | 43 | 1027.5 |
| 20260507153652 | 17 | 278 | 4.8 | 19.3 | 0.00 | 0.00 | 0.00 | 44 | 1027.6 |
| 20260507153151 | 17 | 264 | 6.4 | 24.1 | 0.00 | 0.00 | 0.00 | 44 | 1027.6 |
| 20260507152651 | 16 | 271 | 4.8 | 24.1 | 0.00 | 0.00 | 0.00 | 44 | 1027.6 |
| 20260507152151 | 16 | 333 | 6.4 | 17.7 | 0.00 | 0.00 | 0.00 | 45 | 1027.7 |
| 20260507151650 | 16 | 275 | 4.8 | 16.1 | 0.00 | 0.00 | 0.00 | 45 | 1027.7 |
| 20260507151148 | 16 | 336 | 4.8 | 16.1 | 0.00 | 0.00 | 0.00 | 46 | 1027.9 |
| 20260507150650 | 16 | 286 | 4.8 | 11.3 | 0.00 | 0.00 | 0.00 | 47 | 1027.9 |
| 20260507150151 | 16 | 262 | 4.8 | 11.3 | 0.00 | 0.00 | 0.00 | 46 | 1027.9 |
| 20260507145650 | 16 | 300 | 3.2 | 17.7 | 0.00 | 0.00 | 0.00 | 47 | 1027.9 |
| 20260507145412 | 15 | 289 | 4.8 | 17.7 | 0.00 | 0.00 | 0.00 | 48 | 1027.8 |
| 20260507144650 | 15 | 281 | 4.8 | 22.5 | 0.00 | 0.00 | 0.00 | 48 | 1027.8 |
| 20260507144150 | 15 | 278 | 8.0 | 22.5 | 0.00 | 0.00 | 0.00 | 48 | 1027.8 |
| 20260507143646 | 15 | 307 | 12.9 | 22.5 | 0.00 | 0.00 | 0.00 | 47 | 1027.7 |
| 20260507143145 | 15 | 290 | 3.2 | 19.3 | 0.00 | 0.00 | 0.00 | 49 | 1027.7 |
| 20260507142648 | 15 | 303 | 8.0 | 20.9 | 0.00 | 0.00 | 0.00 | 48 | 1027.8 |
| 20260507142418 | 15 | 248 | 9.7 | 20.9 | 0.00 | 0.00 | 0.00 | 49 | 1027.9 |
| 20260507141650 | 14 | 296 | 4.8 | 20.9 | 0.00 | 0.00 | 0.00 | 51 | 1028.0 |
| 20260507141149 | 14 | 271 | 4.8 | 22.5 | 0.00 | 0.00 | 0.00 | 50 | 1027.9 |
| 20260507140650 | 14 | 299 | 4.8 | 22.5 | 0.00 | 0.00 | 0.00 | 51 | 1027.8 |
| 20260507140149 | 14 | 281 | 6.4 | 22.5 | 0.00 | 0.00 | 0.00 | 51 | 1027.9 |
| 20260507135649 | 13 | 269 | 9.7 | 22.5 | 0.00 | 0.00 | 0.00 | 51 | 1027.8 |
| 20260507135146 | 13 | 274 | 3.2 | 19.3 | 0.00 | 0.00 | 0.00 | 52 | 1027.8 |
| 20260507134645 | 13 | 269 | 6.4 | 19.3 | 0.00 | 0.00 | 0.00 | 51 | 1027.7 |
| 20260507134146 | 13 | 283 | 6.4 | 16.1 | 0.00 | 0.00 | 0.00 | 52 | 1027.6 |
| 20260507133648 | 13 | 320 | 3.2 | 14.5 | 0.00 | 0.00 | 0.00 | 53 | 1027.6 |
| 20260507133409 | 13 | 313 | 6.4 | 14.5 | 0.00 | 0.00 | 0.00 | 53 | 1027.5 |
| 20260507132648 | 13 | 283 | 6.4 | 14.5 | 0.00 | 0.00 | 0.00 | 53 | 1027.5 |
| 20260507132148 | 13 | 314 | 6.4 | 14.5 | 0.00 | 0.00 | 0.00 | 52 | 1027.5 |
| 20260507131915 | 13 | 254 | 6.4 | 14.5 | 0.00 | 0.00 | 0.00 | 53 | 1027.6 |
| 20260507131144 | 13 | 264 | 4.8 | 16.1 | 0.00 | 0.00 | 0.00 | 52 | 1027.3 |
| 20260507130645 | 13 | 269 | 4.8 | 16.1 | 0.00 | 0.00 | 0.00 | 52 | 1027.2 |
| 20260507130144 | 13 | 262 | 8.0 | 14.5 | 0.00 | 0.00 | 0.00 | 52 | 1027.1 |
| 20260507125646 | 13 | 281 | 6.4 | 16.1 | 0.00 | 0.00 | 0.00 | 52 | 1027.1 |
| 20260507125147 | 13 | 290 | 8.0 | 16.1 | 0.00 | 0.00 | 0.00 | 52 | 1027.0 |
| 20260507124649 | 13 | 300 | 6.4 | 9.7 | 0.00 | 0.00 | 0.00 | 52 | 1027.0 |
| 20260507124147 | 13 | 283 | 6.4 | 17.7 | 0.00 | 0.00 | 0.00 | 52 | 1027.0 |
| 20260507123647 | 13 | 251 | 3.2 | 17.7 | 0.00 | 0.00 | 0.00 | 52 | 1027.0 |
| 20260507123408 | 13 | 279 | 6.4 | 17.7 | 0.00 | 0.00 | 0.00 | 51 | 1027.0 |
| 20260507122647 | 13 | 285 | 6.4 | 9.7 | 0.00 | 0.00 | 0.00 | 51 | 1027.0 |
| 20260507122147 | 13 | 278 | 3.2 | 9.7 | 0.00 | 0.00 | 0.00 | 51 | 1027.0 |
| 20260507121647 | 13 | 275 | 4.8 | 11.3 | 0.00 | 0.00 | 0.00 | 51 | 1027.1 |
| 20260507121145 | 13 | 272 | 6.4 | 14.5 | 0.00 | 0.00 | 0.00 | 50 | 1027.1 |
| 20260507120646 | 13 | 261 | 8.0 | 14.5 | 0.00 | 0.00 | 0.00 | 50 | 1027.1 |
| 20260507120148 | 13 | 264 | 3.2 | 14.5 | 0.00 | 0.00 | 0.00 | 50 | 1027.1 |
| 20260507115908 | 13 | 290 | 4.8 | 14.5 | 0.00 | 0.00 | 0.00 | 50 | 1027.1 |
| 20260507115146 | 13 | 282 | 3.2 | 9.7 | 0.00 | 0.00 | 0.00 | 50 | 1027.2 |
| 20260507114646 | 13 | 17 | 1.6 | 9.7 | 0.00 | 0.00 | 0.00 | 50 | 1027.1 |
| 20260507114404 | 13 | 17 | 4.8 | 19.3 | 0.00 | 0.00 | 0.00 | 50 | 1027.1 |
| 20260507113643 | 13 | 289 | 1.6 | 19.3 | 0.00 | 0.00 | 0.00 | 50 | 1027.1 |
| 20260507113142 | 13 | 283 | 3.2 | 8.0 | 0.00 | 0.00 | 0.00 | 50 | 1027.2 |
| 20260507112900 | 13 | 272 | 1.6 | 16.1 | 0.00 | 0.00 | 0.00 | 50 | 1027.2 |
| 20260507112145 | 13 | 131 | 3.2 | 16.1 | 0.00 | 0.00 | 0.00 | 49 | 1027.1 |
| 20260507111647 | 13 | 1 | 3.2 | 8.0 | 0.00 | 0.00 | 0.00 | 49 | 1027.1 |
| 20260507111146 | 13 | 310 | 3.2 | 9.7 | 0.00 | 0.00 | 0.00 | 49 | 1027.0 |
| 20260507110645 | 13 | 247 | 0.0 | 27.4 | 0.00 | 0.00 | 0.00 | 49 | 1027.0 |
| 20260507110145 | 13 | 329 | 4.8 | 27.4 | 0.00 | 0.00 | 0.00 | 49 | 1027.0 |
| 20260507105644 | 13 | 96 | 4.8 | 14.5 | 0.00 | 0.00 | 0.00 | 48 | 1026.9 |
| 20260507105405 | 13 | 320 | 3.2 | 17.7 | 0.00 | 0.00 | 0.00 | 48 | 1027.0 |
| 20260507104645 | 13 | 127 | 4.8 | 17.7 | 0.00 | 0.00 | 0.00 | 48 | 1027.0 |
| 20260507104146 | 14 | 324 | 1.6 | 17.7 | 0.00 | 0.00 | 0.00 | 48 | 1027.0 |
| 20260507103911 | 14 | 238 | 4.8 | 17.7 | 0.00 | 0.00 | 0.00 | 47 | 1026.9 |
| 20260507103144 | 14 | 310 | 3.2 | 16.1 | 0.00 | 0.00 | 0.00 | 48 | 1026.9 |
| 20260507102644 | 14 | 281 | 1.6 | 16.1 | 0.00 | 0.00 | 0.00 | 47 | 1027.0 |
| 20260507102407 | 14 | 320 | 3.2 | 14.5 | 0.00 | 0.00 | 0.00 | 47 | 1026.9 |
| 20260507101644 | 14 | 255 | 4.8 | 14.5 | 0.00 | 0.00 | 0.00 | 47 | 1027.0 |
| 20260507101144 | 14 | 262 | 3.2 | 14.5 | 0.00 | 0.00 | 0.00 | 48 | 1026.8 |
| 20260507100641 | 14 | 255 | 3.2 | 14.5 | 0.00 | 0.00 | 0.00 | 48 | 1026.9 |
| 20260507100140 | 14 | 319 | 3.2 | 9.7 | 0.00 | 0.00 | 0.00 | 48 | 1026.8 |
| 20260507095645 | 14 | 162 | 3.2 | 17.7 | 0.00 | 0.00 | 0.00 | 48 | 1026.7 |
| 20260507095144 | 14 | 268 | 4.8 | 17.7 | 0.00 | 0.00 | 0.00 | 47 | 1026.7 |
| 20260507094643 | 14 | 34 | 3.2 | 17.7 | 0.00 | 0.00 | 0.00 | 47 | 1026.7 |
| 20260507094400 | 14 | 262 | 4.8 | 17.7 | 0.00 | 0.00 | 0.00 | 48 | 1026.6 |
| 20260507093643 | 14 | 214 | 3.2 | 14.5 | 0.00 | 0.00 | 0.00 | 48 | 1026.6 |
| 20260507093144 | 14 | 265 | 1.6 | 9.7 | 0.00 | 0.00 | 0.00 | 48 | 1026.6 |
| 20260507092643 | 14 | 329 | 1.6 | 9.7 | 0.00 | 0.00 | 0.00 | 48 | 1026.5 |
| 20260507092412 | 14 | 299 | 3.2 | 11.3 | 0.00 | 0.00 | 0.00 | 48 | 1026.5 |
| 20260507092144 | 14 | 288 | 1.6 | 11.3 | 0.00 | 0.00 | 0.00 | 48 | 1026.5 |
| 20260507091144 | 14 | 30 | 3.2 | 14.5 | 0.00 | 0.00 | 0.00 | 47 | 1026.5 |
| 20260507090910 | 14 | 269 | 3.2 | 14.5 | 0.00 | 0.00 | 0.00 | 47 | 1026.4 |
| 20260507090143 | 14 | 276 | 4.8 | 14.5 | 0.00 | 0.00 | 0.00 | 47 | 1026.4 |
| 20260507085645 | 14 | 269 | 3.2 | 19.3 | 0.00 | 0.00 | 0.00 | 47 | 1026.4 |
| 20260507085142 | 14 | 307 | 3.2 | 19.3 | 0.00 | 0.00 | 0.00 | 47 | 1026.5 |
| 20260507084642 | 14 | 272 | 3.2 | 17.7 | 0.00 | 0.00 | 0.00 | 47 | 1026.5 |
| 20260507084141 | 14 | 244 | 1.6 | 17.7 | 0.00 | 0.00 | 0.00 | 47 | 1026.5 |
| 20260507083640 | 14 | 327 | 3.2 | 11.3 | 0.00 | 0.00 | 0.00 | 47 | 1026.4 |
| 20260507083402 | 15 | 206 | 3.2 | 24.1 | 0.00 | 0.00 | 0.00 | 47 | 1026.3 |
| 20260507082642 | 15 | 271 | 6.4 | 24.1 | 0.00 | 0.00 | 0.00 | 47 | 1026.3 |
| 20260507082624 | 15 | 268 | 6.4 | 20.9 | 0.00 | 0.00 | 0.00 | 47 | 1026.4 |
| 20260507081641 | 15 | 298 | 6.4 | 20.9 | 0.00 | 0.00 | 0.00 | 46 | 1026.4 |
| 20260507081141 | 15 | 286 | 3.2 | 22.5 | 0.00 | 0.00 | 0.00 | 47 | 1026.5 |
| 20260507080642 | 15 | 251 | 3.2 | 22.5 | 0.00 | 0.00 | 0.00 | 47 | 1026.5 |
| 20260507080142 | 15 | 299 | 6.4 | 19.3 | 0.00 | 0.00 | 0.00 | 47 | 1026.4 |
| 20260507075641 | 15 | 266 | 3.2 | 11.3 | 0.00 | 0.00 | 0.00 | 47 | 1026.4 |
| 20260507075404 | 15 | 268 | 1.6 | 9.7 | 0.00 | 0.00 | 0.00 | 47 | 1026.5 |
| 20260507074641 | 15 | 41 | 1.6 | 20.9 | 0.00 | 0.00 | 0.00 | 47 | 1026.5 |
| 20260507074409 | 15 | 316 | 3.2 | 20.9 | 0.00 | 0.00 | 0.00 | 48 | 1026.3 |
| 20260507073641 | 14 | 312 | 4.8 | 14.5 | 0.00 | 0.00 | 0.00 | 48 | 1026.3 |
| 20260507073141 | 15 | 288 | 1.6 | 14.5 | 0.00 | 0.00 | 0.00 | 48 | 1026.3 |
| 20260507072902 | 15 | 296 | 0.0 | 16.1 | 0.00 | 0.00 | 0.00 | 48 | 1026.2 |
| 20260507072140 | 15 | 303 | 6.4 | 16.1 | 0.00 | 0.00 | 0.00 | 48 | 1026.1 |
| 20260507071641 | 15 | 269 | 6.4 | 19.3 | 0.00 | 0.00 | 0.00 | 47 | 1026.1 |
| 20260507071145 | 15 | 276 | 3.2 | 22.5 | 0.00 | 0.00 | 0.00 | 47 | 1026.0 |
| 20260507070641 | 15 | 299 | 12.9 | 22.5 | 0.00 | 0.00 | 0.00 | 46 | 1026.1 |
| 20260507070404 | 15 | 282 | 11.3 | 25.7 | 0.00 | 0.00 | 0.00 | 46 | 1026.1 |
| 20260507065640 | 15 | 271 | 9.7 | 25.7 | 0.00 | 0.00 | 0.00 | 46 | 1026.0 |
| 20260507065140 | 15 | 264 | 9.7 | 20.9 | 0.00 | 0.00 | 0.00 | 45 | 1026.0 |
| 20260507064639 | 15 | 274 | 8.0 | 20.9 | 0.00 | 0.00 | 0.00 | 45 | 1026.1 |
| 20260507064139 | 15 | 271 | 6.4 | 16.1 | 0.00 | 0.00 | 0.00 | 46 | 1026.2 |
| 20260507063907 | 15 | 258 | 4.8 | 19.3 | 0.00 | 0.00 | 0.00 | 45 | 1026.2 |
| 20260507063141 | 15 | 245 | 4.8 | 19.3 | 0.00 | 0.00 | 0.00 | 46 | 1026.2 |
| 20260507062904 | 15 | 295 | 1.6 | 19.3 | 0.00 | 0.00 | 0.00 | 46 | 1026.2 |
| 20260507062140 | 15 | 261 | 1.6 | 14.5 | 0.00 | 0.00 | 0.00 | 47 | 1025.7 |
| 20260507061639 | 15 | 293 | 4.8 | 14.5 | 0.00 | 0.00 | 0.00 | 47 | 1025.7 |
| 20260507061139 | 15 | 290 | 3.2 | 17.7 | 0.00 | 0.00 | 0.00 | 47 | 1025.8 |
| 20260507060639 | 15 | 52 | 3.2 | 17.7 | 0.00 | 0.00 | 0.00 | 47 | 1026.0 |
| 20260507060138 | 16 | 302 | 9.7 | 17.7 | 0.00 | 0.00 | 0.00 | 46 | 1025.7 |
| 20260507055638 | 15 | 264 | 6.4 | 17.7 | 0.00 | 0.00 | 0.00 | 47 | 1025.8 |
| 20260507055138 | 16 | 314 | 9.7 | 24.1 | 0.00 | 0.00 | 0.00 | 46 | 1026.0 |
| 20260507054638 | 16 | 293 | 6.4 | 24.1 | 0.00 | 0.00 | 0.00 | 46 | 1026.1 |
| 20260507054138 | 15 | 281 | 6.4 | 17.7 | 0.00 | 0.00 | 0.00 | 47 | 1026.0 |
| 20260507053639 | 15 | 281 | 4.8 | 9.7 | 0.00 | 0.00 | 0.00 | 47 | 1026.1 |
| 20260507053137 | 16 | 237 | 4.8 | 9.7 | 0.00 | 0.00 | 0.00 | 46 | 1026.2 |
| 20260507052637 | 16 | 276 | 4.8 | 9.7 | 0.00 | 0.00 | 0.00 | 45 | 1026.2 |